Time,TemperatureF,DewpointF,PressureIn,WindDirection,WindDirectionDegrees,WindSpeedMPH,WindSpeedGustMPH,Humidity,HourlyPrecipIn,Conditions,Clouds,dailyrainin,SoftwareType,DateUTC
2013-06-26 00:01:00,68.0,64.0,29.89,WNW,293,0.0,0.9,87,0.00,,,0.00,WUHU216HW,2013-06-26 04:01:00,
2013-06-26 00:06:00,67.9,64.2,29.88,NW,315,0.9,1.3,88,0.00,,,0.00,WUHU216HW,2013-06-26 04:06:00,
2013-06-26 00:11:00,67.5,63.8,29.88,NW,315,0.0,1.3,88,0.00,,,0.00,WUHU216HW,2013-06-26 04:11:00,
2013-06-26 00:16:00,67.3,63.6,29.88,NW,315,0.0,1.1,88,0.00,,,0.00,WUHU216HW,2013-06-26 04:16:00,
2013-06-26 00:21:00,67.3,63.6,29.88,SSW,203,0.0,0.0,88,0.00,,,0.00,WUHU216HW,2013-06-26 04:21:00,
2013-06-26 00:26:00,67.3,63.6,29.88,SSW,203,0.0,0.0,88,0.00,,,0.00,WUHU216HW,2013-06-26 04:26:00,
2013-06-26 00:31:00,67.3,63.6,29.87,SSW,203,0.0,0.0,88,0.00,,,0.00,WUHU216HW,2013-06-26 04:31:00,
2013-06-26 00:36:00,67.3,63.9,29.87,NW,315,1.1,1.1,89,0.00,,,0.00,WUHU216HW,2013-06-26 04:36:00,
2013-06-26 00:41:00,67.1,63.7,29.88,NW,315,1.1,1.6,89,0.00,,,0.00,WUHU216HW,2013-06-26 04:41:00,
2013-06-26 00:46:00,67.0,63.5,29.88,NW,315,0.0,1.6,89,0.00,,,0.00,WUHU216HW,2013-06-26 04:46:00,
2013-06-26 00:51:00,66.8,63.4,29.88,NW,315,0.0,1.1,89,0.00,,,0.00,WUHU216HW,2013-06-26 04:51:00,
2013-06-26 00:56:00,66.8,63.4,29.88,NW,315,0.0,0.0,89,0.00,,,0.00,WUHU216HW,2013-06-26 04:56:00,
2013-06-26 01:01:00,66.8,63.7,29.88,NW,315,0.0,0.0,90,0.00,,,0.00,WUHU216HW,2013-06-26 05:01:00,
2013-06-26 01:06:00,66.8,63.4,29.88,NW,315,0.0,0.0,89,0.00,,,0.00,WUHU216HW,2013-06-26 05:06:00,
2013-06-26 01:11:00,66.8,63.7,29.88,NW,315,0.0,0.0,90,0.00,,,0.00,WUHU216HW,2013-06-26 05:11:00,
2013-06-26 01:16:00,66.8,63.7,29.88,NW,315,0.0,0.0,90,0.00,,,0.00,WUHU216HW,2013-06-26 05:16:00,
2013-06-26 01:21:00,66.8,63.7,29.88,NW,315,0.0,0.0,90,0.00,,,0.00,WUHU216HW,2013-06-26 05:21:00,
2013-06-26 01:26:00,66.8,63.4,29.88,NW,315,0.0,0.0,89,0.00,,,0.00,WUHU216HW,2013-06-26 05:26:00,
2013-06-26 01:31:00,66.6,63.5,29.88,NW,315,0.7,0.7,90,0.00,,,0.00,WUHU216HW,2013-06-26 05:31:00,
2013-06-26 01:36:00,66.6,63.5,29.88,NW,315,0.0,0.7,90,0.00,,,0.00,WUHU216HW,2013-06-26 05:36:00,
2013-06-26 01:41:00,66.4,63.4,29.88,NW,315,0.0,0.7,90,0.00,,,0.00,WUHU216HW,2013-06-26 05:41:00,
2013-06-26 01:46:00,66.4,63.4,29.88,NW,315,0.0,0.0,90,0.00,,,0.00,WUHU216HW,2013-06-26 05:46:00,
2013-06-26 01:51:00,66.2,63.2,29.88,NW,315,0.0,0.0,90,0.00,,,0.00,WUHU216HW,2013-06-26 05:51:00,
2013-06-26 01:56:00,66.2,63.2,29.88,NW,315,0.0,0.0,90,0.00,,,0.00,WUHU216HW,2013-06-26 05:56:00,
2013-06-26 02:01:00,66.2,63.2,29.88,NW,315,0.0,0.0,90,0.00,,,0.00,WUHU216HW,2013-06-26 06:01:00,
2013-06-26 02:06:00,66.1,63.0,29.88,NW,315,0.0,0.0,90,0.00,,,0.00,WUHU216HW,2013-06-26 06:06:00,
2013-06-26 02:11:00,66.1,63.0,29.87,NW,315,0.0,0.0,90,0.00,,,0.00,WUHU216HW,2013-06-26 06:11:00,
2013-06-26 02:16:00,66.1,63.0,29.87,NW,315,0.0,0.0,90,0.00,,,0.00,WUHU216HW,2013-06-26 06:16:00,
2013-06-26 02:21:00,66.1,63.0,29.87,NW,315,0.0,0.7,90,0.00,,,0.00,WUHU216HW,2013-06-26 06:21:00,
2013-06-26 02:26:00,65.9,62.8,29.86,NW,315,0.0,0.7,90,0.00,,,0.00,WUHU216HW,2013-06-26 06:26:00,
2013-06-26 02:31:00,65.9,63.2,29.86,NW,315,0.0,0.0,91,0.00,,,0.00,WUHU216HW,2013-06-26 06:31:00,
2013-06-26 02:36:00,65.9,63.2,29.86,NW,315,0.0,0.0,91,0.00,,,0.00,WUHU216HW,2013-06-26 06:36:00,
2013-06-26 02:41:00,65.9,62.8,29.86,NW,315,0.0,0.0,90,0.00,,,0.00,WUHU216HW,2013-06-26 06:41:00,
2013-06-26 02:46:00,65.9,63.2,29.86,WNW,293,0.4,1.1,91,0.00,,,0.00,WUHU216HW,2013-06-26 06:46:00,
2013-06-26 02:51:00,65.7,63.0,29.86,WNW,293,0.0,1.1,91,0.00,,,0.00,WUHU216HW,2013-06-26 06:51:00,
2013-06-26 02:56:00,65.7,62.7,29.86,WNW,293,0.0,0.4,90,0.00,,,0.00,WUHU216HW,2013-06-26 06:56:00,
2013-06-26 03:01:00,65.7,62.7,29.86,WNW,293,0.0,0.0,90,0.00,,,0.00,WUHU216HW,2013-06-26 07:01:00,
2013-06-26 03:06:00,65.5,62.6,29.85,WNW,293,0.0,0.0,90,0.00,,,0.00,WUHU216HW,2013-06-26 07:06:00,
2013-06-26 03:11:00,65.5,62.6,29.85,NW,315,0.4,1.3,90,0.00,,,0.00,WUHU216HW,2013-06-26 07:11:00,
2013-06-26 03:16:00,65.5,62.6,29.85,WNW,293,1.3,1.3,90,0.00,,,0.00,WUHU216HW,2013-06-26 07:16:00,
2013-06-26 03:21:00,65.3,62.4,29.85,NW,315,0.0,1.3,90,0.00,,,0.00,WUHU216HW,2013-06-26 07:21:00,
2013-06-26 03:26:00,65.3,62.4,29.85,NW,315,0.0,1.3,90,0.00,,,0.00,WUHU216HW,2013-06-26 07:26:00,
2013-06-26 03:31:00,65.3,62.4,29.84,NW,315,0.0,0.0,90,0.00,,,0.00,WUHU216HW,2013-06-26 07:31:00,
2013-06-26 03:36:00,65.3,62.4,29.85,NW,315,1.1,1.1,90,0.00,,,0.00,WUHU216HW,2013-06-26 07:36:00,
2013-06-26 03:41:00,65.5,62.8,29.85,NNW,338,0.0,1.3,91,0.00,,,0.00,WUHU216HW,2013-06-26 07:41:00,
2013-06-26 03:46:00,65.5,62.8,29.85,South,180,0.0,1.3,91,0.00,,,0.00,WUHU216HW,2013-06-26 07:46:00,
2013-06-26 03:51:00,65.5,63.1,29.85,South,180,0.0,1.1,92,0.00,,,0.00,WUHU216HW,2013-06-26 07:51:00,
2013-06-26 03:56:00,65.5,62.8,29.85,South,180,0.0,1.1,91,0.00,,,0.00,WUHU216HW,2013-06-26 07:56:00,
2013-06-26 04:06:00,65.5,62.8,29.85,South,180,0.0,0.0,91,0.00,,,0.00,WUHU216HW,2013-06-26 08:06:00,
2013-06-26 04:11:00,65.5,62.8,29.85,South,180,0.0,0.0,91,0.00,,,0.00,WUHU216HW,2013-06-26 08:11:00,
2013-06-26 04:16:00,65.5,62.8,29.85,South,180,0.0,0.0,91,0.00,,,0.00,WUHU216HW,2013-06-26 08:16:00,
2013-06-26 04:21:00,65.7,63.0,29.84,South,180,0.0,0.0,91,0.00,,,0.00,WUHU216HW,2013-06-26 08:21:00,
2013-06-26 04:26:00,65.7,63.0,29.85,South,180,0.0,0.0,91,0.00,,,0.00,WUHU216HW,2013-06-26 08:26:00,
2013-06-26 04:31:00,65.7,63.0,29.85,South,180,0.0,0.0,91,0.00,,,0.00,WUHU216HW,2013-06-26 08:31:00,
2013-06-26 04:36:00,65.7,63.0,29.84,South,180,0.0,0.0,91,0.00,,,0.00,WUHU216HW,2013-06-26 08:36:00,
2013-06-26 04:41:00,65.7,63.0,29.84,South,180,0.0,0.0,91,0.00,,,0.00,WUHU216HW,2013-06-26 08:41:00,
2013-06-26 04:46:00,65.7,63.0,29.85,South,180,0.0,0.0,91,0.00,,,0.00,WUHU216HW,2013-06-26 08:46:00,
2013-06-26 04:51:00,65.7,63.0,29.85,South,180,0.0,0.0,91,0.00,,,0.00,WUHU216HW,2013-06-26 08:51:00,
2013-06-26 04:56:00,65.7,63.0,29.85,South,180,0.0,0.0,91,0.00,,,0.00,WUHU216HW,2013-06-26 08:56:00,
2013-06-26 05:01:00,65.7,63.0,29.85,South,180,0.0,0.0,91,0.00,,,0.00,WUHU216HW,2013-06-26 09:01:00,
2013-06-26 05:06:00,65.7,63.0,29.85,South,180,0.0,0.0,91,0.00,,,0.00,WUHU216HW,2013-06-26 09:06:00,
2013-06-26 05:11:00,65.7,63.0,29.85,South,180,0.0,0.0,91,0.00,,,0.00,WUHU216HW,2013-06-26 09:11:00,
2013-06-26 05:16:00,65.7,63.0,29.86,WNW,293,0.9,0.9,91,0.00,,,0.00,WUHU216HW,2013-06-26 09:16:00,
2013-06-26 05:21:00,65.7,63.0,29.86,NW,315,1.1,1.3,91,0.00,,,0.00,WUHU216HW,2013-06-26 09:21:00,
2013-06-26 05:26:00,65.5,63.1,29.86,NW,315,1.1,1.3,92,0.00,,,0.00,WUHU216HW,2013-06-26 09:26:00,
2013-06-26 05:31:00,65.5,62.8,29.86,WSW,248,0.0,1.1,91,0.00,,,0.00,WUHU216HW,2013-06-26 09:31:00,
2013-06-26 05:36:00,65.5,62.8,29.86,WSW,248,0.0,0.0,91,0.00,,,0.00,WUHU216HW,2013-06-26 09:36:00,
2013-06-26 05:41:00,65.5,62.8,29.86,WSW,248,0.0,0.0,91,0.00,,,0.00,WUHU216HW,2013-06-26 09:41:00,
2013-06-26 05:46:00,65.5,62.8,29.86,WSW,248,0.0,0.0,91,0.00,,,0.00,WUHU216HW,2013-06-26 09:46:00,
2013-06-26 05:51:00,65.5,62.8,29.86,WSW,248,0.0,0.0,91,0.00,,,0.00,WUHU216HW,2013-06-26 09:51:00,
2013-06-26 05:56:00,65.5,62.8,29.86,WSW,248,0.0,0.0,91,0.00,,,0.00,WUHU216HW,2013-06-26 09:56:00,
2013-06-26 06:01:00,65.5,62.8,29.86,WSW,248,0.0,0.0,91,0.00,,,0.00,WUHU216HW,2013-06-26 10:01:00,
2013-06-26 06:06:00,65.7,63.3,29.86,WNW,293,0.0,0.0,92,0.00,,,0.00,WUHU216HW,2013-06-26 10:06:00,
2013-06-26 06:11:00,65.7,63.3,29.86,WNW,293,0.0,0.2,92,0.00,,,0.00,WUHU216HW,2013-06-26 10:11:00,
2013-06-26 06:16:00,65.7,63.3,29.86,WNW,293,0.4,1.3,92,0.00,,,0.00,WUHU216HW,2013-06-26 10:16:00,
2013-06-26 06:21:00,65.7,63.3,29.86,West,270,0.4,1.3,92,0.00,,,0.00,WUHU216HW,2013-06-26 10:21:00,
2013-06-26 06:26:00,65.7,63.3,29.86,WSW,248,0.0,0.9,92,0.00,,,0.00,WUHU216HW,2013-06-26 10:26:00,
2013-06-26 06:31:00,65.7,63.3,29.86,NNW,338,0.4,0.9,92,0.00,,,0.00,WUHU216HW,2013-06-26 10:31:00,
2013-06-26 06:36:00,65.7,63.3,29.86,WNW,293,0.4,1.1,92,0.00,,,0.00,WUHU216HW,2013-06-26 10:36:00,
2013-06-26 06:41:00,65.9,63.5,29.86,WNW,293,0.0,1.1,92,0.00,,,0.00,WUHU216HW,2013-06-26 10:41:00,
2013-06-26 06:46:00,65.9,63.5,29.86,WSW,248,0.0,1.1,92,0.00,,,0.00,WUHU216HW,2013-06-26 10:46:00,
2013-06-26 06:51:00,65.9,63.5,29.86,NW,315,0.7,1.8,92,0.00,,,0.00,WUHU216HW,2013-06-26 10:51:00,
2013-06-26 06:56:00,65.7,63.3,29.86,West,270,0.0,1.8,92,0.00,,,0.00,WUHU216HW,2013-06-26 10:56:00,
2013-06-26 07:01:00,65.7,63.3,29.86,West,270,0.7,1.3,92,0.00,,,0.00,WUHU216HW,2013-06-26 11:01:00,
2013-06-26 07:06:00,65.7,63.3,29.86,SSW,203,0.7,1.3,92,0.00,,,0.00,WUHU216HW,2013-06-26 11:06:00,
2013-06-26 07:11:00,65.9,63.7,29.86,NNW,338,1.1,2.5,93,0.00,,,0.00,WUHU216HW,2013-06-26 11:11:00,
2013-06-26 07:16:00,65.7,63.3,29.85,WSW,248,0.2,2.5,92,0.00,,,0.00,WUHU216HW,2013-06-26 11:16:00,
2013-06-26 07:21:00,65.9,63.5,29.86,SW,225,0.0,1.1,92,0.00,,,0.00,WUHU216HW,2013-06-26 11:21:00,
2013-06-26 07:26:00,65.9,63.5,29.85,NNW,338,1.1,1.1,92,0.00,,,0.00,WUHU216HW,2013-06-26 11:26:00,
2013-06-26 07:31:00,65.9,63.5,29.85,SW,225,0.0,1.8,92,0.00,,,0.00,WUHU216HW,2013-06-26 11:31:00,
2013-06-26 07:36:00,65.9,63.5,29.85,SSE,158,0.4,1.8,92,0.00,,,0.00,WUHU216HW,2013-06-26 11:36:00,
2013-06-26 07:41:00,65.9,63.5,29.85,North,0,0.0,0.7,92,0.00,,,0.00,WUHU216HW,2013-06-26 11:41:00,
2013-06-26 07:46:00,65.9,63.7,29.85,North,0,0.0,1.8,93,0.00,,,0.00,WUHU216HW,2013-06-26 11:46:00,
2013-06-26 07:51:00,66.1,63.6,29.85,NW,315,0.0,1.8,92,0.00,,,0.00,WUHU216HW,2013-06-26 11:51:00,
2013-06-26 07:56:00,66.1,63.6,29.85,NNW,338,0.0,1.6,92,0.00,,,0.00,WUHU216HW,2013-06-26 11:56:00,
2013-06-26 08:01:00,66.2,63.8,29.85,NW,315,0.9,1.6,92,0.00,,,0.00,WUHU216HW,2013-06-26 12:01:00,
2013-06-26 08:06:00,66.6,64.4,29.85,WNW,293,0.0,1.6,93,0.00,,,0.00,WUHU216HW,2013-06-26 12:06:00,
2013-06-26 08:11:00,66.8,65.0,29.85,NNW,338,1.8,2.5,94,0.00,,,0.00,WUHU216HW,2013-06-26 12:11:00,
2013-06-26 08:16:00,67.0,65.2,29.85,WNW,293,0.4,2.5,94,0.00,,,0.00,WUHU216HW,2013-06-26 12:16:00,
2013-06-26 08:21:00,67.0,65.2,29.85,NW,315,0.7,1.8,94,0.00,,,0.00,WUHU216HW,2013-06-26 12:21:00,
2013-06-26 08:26:00,67.3,65.2,29.85,SSW,203,0.2,1.1,93,0.00,,,0.00,WUHU216HW,2013-06-26 12:26:00,
2013-06-26 08:31:00,67.5,65.3,29.85,South,180,0.0,0.7,93,0.00,,,0.00,WUHU216HW,2013-06-26 12:31:00,
2013-06-26 08:36:00,67.9,66.1,29.85,North,0,1.1,1.8,94,0.00,,,0.00,WUHU216HW,2013-06-26 12:36:00,
2013-06-26 08:41:00,68.2,66.1,29.84,NNW,338,0.2,1.8,93,0.00,,,0.00,WUHU216HW,2013-06-26 12:41:00,
2013-06-26 08:46:00,68.4,66.2,29.84,West,270,0.0,1.1,93,0.00,,,0.00,WUHU216HW,2013-06-26 12:46:00,
2013-06-26 08:52:00,68.8,66.6,29.84,South,180,0.4,0.9,93,0.00,,,0.00,WUHU216HW,2013-06-26 12:52:00,
2013-06-26 08:57:00,69.1,67.0,29.84,SSE,158,0.7,1.1,93,0.00,,,0.00,WUHU216HW,2013-06-26 12:57:00,
2013-06-26 09:02:00,69.5,67.3,29.84,NNW,338,1.1,1.6,93,0.00,,,0.00,WUHU216HW,2013-06-26 13:02:00,
2013-06-26 09:07:00,69.8,67.4,29.84,ESE,113,0.0,1.6,92,0.00,,,0.00,WUHU216HW,2013-06-26 13:07:00,
2013-06-26 09:12:00,70.0,67.6,29.84,NNE,23,1.1,1.3,92,0.00,,,0.00,WUHU216HW,2013-06-26 13:12:00,
2013-06-26 09:17:00,70.2,67.8,29.84,SW,225,1.3,1.3,92,0.00,,,0.00,WUHU216HW,2013-06-26 13:17:00,
2013-06-26 09:22:00,70.6,68.1,29.84,SW,225,0.9,1.8,92,0.00,,,0.00,WUHU216HW,2013-06-26 13:22:00,
2013-06-26 09:27:00,70.9,68.1,29.84,SSE,158,1.1,2.2,91,0.00,,,0.00,WUHU216HW,2013-06-26 13:27:00,
2013-06-26 09:32:00,71.3,68.5,29.84,SSE,158,0.4,2.2,91,0.00,,,0.00,WUHU216HW,2013-06-26 13:32:00,
2013-06-26 09:37:00,71.6,68.6,29.84,East,90,0.4,1.8,90,0.00,,,0.00,WUHU216HW,2013-06-26 13:37:00,
2013-06-26 09:42:00,71.8,68.8,29.84,SE,135,1.1,1.8,90,0.00,,,0.00,WUHU216HW,2013-06-26 13:42:00,
2013-06-26 09:47:00,72.0,68.6,29.84,SSE,158,0.2,1.8,89,0.00,,,0.00,WUHU216HW,2013-06-26 13:47:00,
2013-06-26 09:52:00,72.4,68.9,29.84,SE,135,0.4,1.8,89,0.00,,,0.00,WUHU216HW,2013-06-26 13:52:00,
2013-06-26 09:57:00,72.7,69.3,29.84,SSW,203,0.9,1.8,89,0.00,,,0.00,WUHU216HW,2013-06-26 13:57:00,
2013-06-26 10:02:00,73.1,69.7,29.84,SE,135,0.4,1.8,89,0.00,,,0.00,WUHU216HW,2013-06-26 14:02:00,
2013-06-26 10:07:00,73.4,69.7,29.84,SW,225,0.4,2.5,88,0.00,,,0.00,WUHU216HW,2013-06-26 14:07:00,
2013-06-26 10:12:00,73.8,69.8,29.84,East,90,0.9,2.5,87,0.00,,,0.00,WUHU216HW,2013-06-26 14:12:00,
2013-06-26 10:17:00,74.0,69.9,29.84,WSW,248,0.0,1.1,87,0.00,,,0.00,WUHU216HW,2013-06-26 14:17:00,
2013-06-26 10:22:00,74.5,70.5,29.84,NNW,338,0.7,2.7,87,0.00,,,0.00,WUHU216HW,2013-06-26 14:22:00,
2013-06-26 10:27:00,74.9,70.5,29.84,SSW,203,1.1,2.7,86,0.00,,,0.00,WUHU216HW,2013-06-26 14:27:00,
2013-06-26 10:32:00,75.2,70.5,29.84,SW,225,0.4,1.3,85,0.00,,,0.00,WUHU216HW,2013-06-26 14:32:00,
2013-06-26 10:37:00,75.6,70.5,29.84,WSW,248,1.3,2.5,84,0.00,,,0.00,WUHU216HW,2013-06-26 14:37:00,
2013-06-26 10:42:00,76.0,70.8,29.84,SW,225,0.0,2.5,84,0.00,,,0.00,WUHU216HW,2013-06-26 14:42:00,
2013-06-26 10:47:00,76.1,70.3,29.84,South,180,1.3,1.8,82,0.00,,,0.00,WUHU216HW,2013-06-26 14:47:00,
2013-06-26 10:52:00,76.3,70.5,29.84,NNW,338,0.0,1.8,82,0.00,,,0.00,WUHU216HW,2013-06-26 14:52:00,
2013-06-26 10:57:00,76.3,69.4,29.84,NNW,338,1.6,2.2,79,0.00,,,0.00,WUHU216HW,2013-06-26 14:57:00,
2013-06-26 11:02:00,76.3,70.1,29.84,SW,225,0.9,2.2,81,0.00,,,0.00,WUHU216HW,2013-06-26 15:02:00,
2013-06-26 11:07:00,76.3,70.1,29.84,ENE,68,0.0,1.8,81,0.00,,,0.00,WUHU216HW,2013-06-26 15:07:00,
2013-06-26 11:12:00,76.1,69.9,29.84,West,270,0.9,1.8,81,0.00,,,0.00,WUHU216HW,2013-06-26 15:12:00,
2013-06-26 11:17:00,76.0,69.8,29.84,SSW,203,1.1,2.5,81,0.00,,,0.00,WUHU216HW,2013-06-26 15:17:00,
2013-06-26 11:22:00,75.6,69.4,29.84,South,180,0.9,2.5,81,0.00,,,0.00,WUHU216HW,2013-06-26 15:22:00,
2013-06-26 11:27:00,76.0,69.8,29.84,NE,45,0.7,2.0,81,0.00,,,0.00,WUHU216HW,2013-06-26 15:27:00,
2013-06-26 11:32:00,76.0,69.8,29.84,SE,135,0.2,1.8,81,0.00,,,0.00,WUHU216HW,2013-06-26 15:32:00,
2013-06-26 11:37:00,76.7,70.4,29.84,NNW,338,1.6,1.6,81,0.00,,,0.00,WUHU216HW,2013-06-26 15:37:00,
2013-06-26 11:42:00,77.4,70.7,29.84,ESE,113,0.2,2.2,80,0.00,,,0.00,WUHU216HW,2013-06-26 15:42:00,
2013-06-26 11:47:00,77.8,70.8,29.84,SW,225,1.1,2.9,79,0.00,,,0.00,WUHU216HW,2013-06-26 15:47:00,
2013-06-26 11:52:00,77.9,69.3,29.84,NNW,338,2.5,2.9,75,0.00,,,0.00,WUHU216HW,2013-06-26 15:52:00,
2013-06-26 11:57:00,78.5,70.3,29.84,SSW,203,1.8,3.8,76,0.00,,,0.00,WUHU216HW,2013-06-26 15:57:00,
2013-06-26 12:02:00,78.8,68.6,29.84,WSW,248,2.5,3.8,71,0.00,,,0.00,WUHU216HW,2013-06-26 16:02:00,
2013-06-26 12:07:00,79.6,68.5,29.84,SSW,203,1.8,4.9,69,0.00,,,0.00,WUHU216HW,2013-06-26 16:07:00,
2013-06-26 12:12:00,79.7,69.1,29.84,WSW,248,0.7,4.9,70,0.00,,,0.00,WUHU216HW,2013-06-26 16:12:00,
2013-06-26 12:17:00,79.7,69.5,29.84,SSW,203,0.7,1.8,71,0.00,,,0.00,WUHU216HW,2013-06-26 16:17:00,
2013-06-26 12:22:00,79.6,68.0,29.84,WNW,293,0.4,2.0,68,0.00,,,0.00,WUHU216HW,2013-06-26 16:22:00,
2013-06-26 12:27:00,79.4,68.8,29.84,WSW,248,2.0,2.9,70,0.00,,,0.00,WUHU216HW,2013-06-26 16:27:00,
2013-06-26 12:32:00,79.4,69.1,29.84,West,270,0.2,2.9,71,0.00,,,0.00,WUHU216HW,2013-06-26 16:32:00,
2013-06-26 12:37:00,79.6,68.9,29.84,West,270,0.0,2.9,70,0.00,,,0.00,WUHU216HW,2013-06-26 16:37:00,
2013-06-26 12:42:00,79.6,68.5,29.84,WSW,248,2.5,2.9,69,0.00,,,0.00,WUHU216HW,2013-06-26 16:42:00,
2013-06-26 12:47:00,79.2,68.1,29.84,WSW,248,0.9,3.1,69,0.00,,,0.00,WUHU216HW,2013-06-26 16:47:00,
2013-06-26 12:52:00,78.8,67.8,29.84,SSW,203,1.1,3.1,69,0.00,,,0.00,WUHU216HW,2013-06-26 16:52:00,
2013-06-26 12:57:00,78.8,68.2,29.84,WSW,248,1.1,1.8,70,0.00,,,0.00,WUHU216HW,2013-06-26 16:57:00,
2013-06-26 13:02:00,78.8,67.0,29.84,NNW,338,0.9,3.4,67,0.00,,,0.00,WUHU216HW,2013-06-26 17:02:00,
2013-06-26 13:07:00,79.2,67.2,29.84,SW,225,0.0,4.7,67,0.00,,,0.00,WUHU216HW,2013-06-26 17:07:00,
2013-06-26 13:12:00,79.2,67.2,29.84,WSW,248,1.3,4.7,67,0.00,,,0.00,WUHU216HW,2013-06-26 17:12:00,
2013-06-26 13:17:00,79.7,67.3,29.84,West,270,2.2,4.7,66,0.00,,,0.00,WUHU216HW,2013-06-26 17:17:00,
2013-06-26 13:22:00,80.3,67.9,29.84,WNW,293,2.9,3.8,66,0.00,,,0.00,WUHU216HW,2013-06-26 17:22:00,
2013-06-26 13:27:00,79.7,62.7,29.84,NNW,338,9.2,9.2,56,0.00,,,0.00,WUHU216HW,2013-06-26 17:27:00,
2013-06-26 13:32:00,79.7,64.2,29.84,West,270,4.5,9.2,59,0.00,,,0.00,WUHU216HW,2013-06-26 17:32:00,
2013-06-26 13:37:00,79.9,63.3,29.84,SW,225,0.9,9.2,57,0.00,,,0.00,WUHU216HW,2013-06-26 17:37:00,
2013-06-26 13:42:00,79.6,64.0,29.83,NW,315,1.1,7.6,59,0.00,,,0.00,WUHU216HW,2013-06-26 17:42:00,
2013-06-26 13:47:00,79.2,63.7,29.83,WNW,293,1.3,6.0,59,0.00,,,0.00,WUHU216HW,2013-06-26 17:47:00,
2013-06-26 13:52:00,79.2,65.1,29.83,NNW,338,0.4,6.0,62,0.00,,,0.00,WUHU216HW,2013-06-26 17:52:00,
2013-06-26 13:57:00,79.7,66.1,29.82,SW,225,1.1,1.8,63,0.00,,,0.00,WUHU216HW,2013-06-26 17:57:00,
2013-06-26 14:02:00,80.5,64.4,29.82,NNE,23,4.7,4.7,58,0.00,,,0.00,WUHU216HW,2013-06-26 18:02:00,
2013-06-26 14:07:00,80.8,65.2,29.82,North,0,1.6,4.7,59,0.00,,,0.00,WUHU216HW,2013-06-26 18:07:00,
2013-06-26 14:12:00,81.0,66.8,29.82,WSW,248,1.8,4.7,62,0.00,,,0.00,WUHU216HW,2013-06-26 18:12:00,
2013-06-26 14:17:00,81.0,66.8,29.82,South,180,1.8,3.4,62,0.00,,,0.00,WUHU216HW,2013-06-26 18:17:00,
2013-06-26 14:22:00,81.2,66.4,29.82,WSW,248,2.9,3.8,61,0.00,,,0.00,WUHU216HW,2013-06-26 18:22:00,
2013-06-26 14:27:00,81.5,67.2,29.82,WSW,248,1.8,3.8,62,0.00,,,0.00,WUHU216HW,2013-06-26 18:27:00,
2013-06-26 14:32:00,81.5,65.3,29.82,WSW,248,2.5,6.9,58,0.00,,,0.00,WUHU216HW,2013-06-26 18:32:00,
2013-06-26 14:37:00,80.5,65.3,29.82,SW,225,2.5,7.8,60,0.00,,,0.00,WUHU216HW,2013-06-26 18:37:00,
2013-06-26 14:42:00,80.1,65.5,29.82,NNW,338,1.8,7.8,61,0.00,,,0.00,WUHU216HW,2013-06-26 18:42:00,
2013-06-26 14:47:00,80.3,66.5,29.82,SW,225,2.0,3.8,63,0.00,,,0.00,WUHU216HW,2013-06-26 18:47:00,
2013-06-26 14:52:00,81.0,67.2,29.81,WSW,248,1.1,3.8,63,0.00,,,0.00,WUHU216HW,2013-06-26 18:52:00,
2013-06-26 14:57:00,81.5,66.3,29.81,WSW,248,1.8,4.9,60,0.00,,,0.00,WUHU216HW,2013-06-26 18:57:00,
2013-06-26 15:02:00,82.1,67.7,29.81,WSW,248,2.9,4.9,62,0.00,,,0.00,WUHU216HW,2013-06-26 19:02:00,
2013-06-26 15:07:00,82.1,65.3,29.80,NNW,338,1.6,4.3,57,0.00,,,0.00,WUHU216HW,2013-06-26 19:07:00,
2013-06-26 15:12:00,82.3,63.8,29.80,NNW,338,5.4,9.2,54,0.00,,,0.00,WUHU216HW,2013-06-26 19:12:00,
2013-06-26 15:17:00,82.3,63.8,29.80,West,270,4.0,9.2,54,0.00,,,0.00,WUHU216HW,2013-06-26 19:17:00,
2013-06-26 15:22:00,82.3,64.9,29.80,WNW,293,5.6,7.4,56,0.00,,,0.00,WUHU216HW,2013-06-26 19:22:00,
2013-06-26 15:27:00,82.4,62.5,29.80,WNW,293,1.3,9.2,51,0.00,,,0.00,WUHU216HW,2013-06-26 19:27:00,
2013-06-26 15:32:00,81.7,63.4,29.80,WNW,293,4.0,9.2,54,0.00,,,0.00,WUHU216HW,2013-06-26 19:32:00,
2013-06-26 15:37:00,81.7,63.4,29.80,WSW,248,1.8,7.4,54,0.00,,,0.00,WUHU216HW,2013-06-26 19:37:00,
2013-06-26 15:42:00,81.7,64.5,29.81,NW,315,4.7,4.9,56,0.00,,,0.00,WUHU216HW,2013-06-26 19:42:00,
2013-06-26 15:47:00,81.4,63.5,29.81,NW,315,7.4,7.4,55,0.00,,,0.00,WUHU216HW,2013-06-26 19:47:00,
2013-06-26 15:52:00,80.6,62.9,29.81,North,0,5.8,7.8,55,0.00,,,0.00,WUHU216HW,2013-06-26 19:52:00,
2013-06-26 15:57:00,80.6,64.0,29.81,NNW,338,1.8,7.8,57,0.00,,,0.00,WUHU216HW,2013-06-26 19:57:00,
2013-06-26 16:02:00,81.0,64.8,29.81,SW,225,1.1,5.8,58,0.00,,,0.00,WUHU216HW,2013-06-26 20:02:00,
2013-06-26 16:07:00,81.7,66.0,29.81,West,270,0.2,2.7,59,0.00,,,0.00,WUHU216HW,2013-06-26 20:07:00,
2013-06-26 16:12:00,81.5,65.3,29.81,NNW,338,2.5,4.0,58,0.00,,,0.00,WUHU216HW,2013-06-26 20:12:00,
2013-06-26 16:17:00,80.8,64.6,29.80,SW,225,2.2,4.7,58,0.00,,,0.00,WUHU216HW,2013-06-26 20:17:00,
2013-06-26 16:22:00,80.1,64.0,29.80,WNW,293,2.0,8.5,58,0.00,,,0.00,WUHU216HW,2013-06-26 20:22:00,
2013-06-26 16:27:00,79.9,64.4,29.80,WNW,293,2.5,8.5,59,0.00,,,0.00,WUHU216HW,2013-06-26 20:27:00,
2013-06-26 16:32:00,80.1,65.1,29.80,WSW,248,1.3,4.0,60,0.00,,,0.00,WUHU216HW,2013-06-26 20:32:00,
2013-06-26 16:37:00,79.9,64.9,29.79,WNW,293,3.1,7.4,60,0.00,,,0.00,WUHU216HW,2013-06-26 20:37:00,
2013-06-26 16:42:00,79.9,63.8,29.79,WSW,248,2.5,7.4,58,0.00,,,0.00,WUHU216HW,2013-06-26 20:42:00,
2013-06-26 16:47:00,79.7,63.6,29.79,West,270,1.6,6.3,58,0.00,,,0.00,WUHU216HW,2013-06-26 20:47:00,
2013-06-26 16:52:00,80.1,64.0,29.79,NW,315,4.3,4.9,58,0.00,,,0.00,WUHU216HW,2013-06-26 20:52:00,
2013-06-26 16:57:00,80.6,65.0,29.79,WSW,248,1.6,4.9,59,0.00,,,0.00,WUHU216HW,2013-06-26 20:57:00,
2013-06-26 17:02:00,81.0,65.9,29.79,SW,225,1.8,4.3,60,0.00,,,0.00,WUHU216HW,2013-06-26 21:02:00,
2013-06-26 17:07:00,81.0,63.3,29.79,NW,315,2.0,4.5,55,0.00,,,0.00,WUHU216HW,2013-06-26 21:07:00,
2013-06-26 17:12:00,80.6,65.0,29.79,NW,315,1.3,4.5,59,0.00,,,0.00,WUHU216HW,2013-06-26 21:12:00,
2013-06-26 17:17:00,80.1,64.0,29.80,WNW,293,2.5,4.0,58,0.00,,,0.00,WUHU216HW,2013-06-26 21:17:00,
2013-06-26 17:22:00,79.7,64.2,29.79,WNW,293,2.7,4.0,59,0.00,,,0.00,WUHU216HW,2013-06-26 21:22:00,
2013-06-26 17:27:00,79.7,64.7,29.79,NNW,338,0.2,3.4,60,0.00,,,0.00,WUHU216HW,2013-06-26 21:27:00,
2013-06-26 17:32:00,79.4,64.8,29.79,North,0,0.4,3.4,61,0.00,,,0.00,WUHU216HW,2013-06-26 21:32:00,
2013-06-26 17:37:00,79.2,65.1,29.79,NNW,338,1.8,3.8,62,0.00,,,0.00,WUHU216HW,2013-06-26 21:37:00,
2013-06-26 17:42:00,78.8,64.4,29.78,NNW,338,3.4,4.0,61,0.00,,,0.00,WUHU216HW,2013-06-26 21:42:00,
2013-06-26 17:47:00,78.5,64.5,29.78,NNW,338,2.9,4.3,62,0.00,,,0.00,WUHU216HW,2013-06-26 21:47:00,
2013-06-26 17:52:00,78.7,64.6,29.78,NW,315,2.5,5.4,62,0.00,,,0.00,WUHU216HW,2013-06-26 21:52:00,
2013-06-26 17:57:00,78.7,65.0,29.78,WNW,293,3.4,5.4,63,0.00,,,0.00,WUHU216HW,2013-06-26 21:57:00,
2013-06-26 18:02:00,78.5,64.5,29.78,NW,315,2.5,5.1,62,0.00,,,0.00,WUHU216HW,2013-06-26 22:02:00,
2013-06-26 18:07:00,78.7,65.0,29.78,NW,315,2.5,5.1,63,0.00,,,0.00,WUHU216HW,2013-06-26 22:07:00,
2013-06-26 18:12:00,78.8,65.2,29.78,NNW,338,2.2,4.5,63,0.00,,,0.00,WUHU216HW,2013-06-26 22:12:00,
2013-06-26 18:17:00,79.0,65.3,29.78,NW,315,1.1,3.6,63,0.00,,,0.00,WUHU216HW,2013-06-26 22:17:00,
2013-06-26 18:22:00,79.2,66.0,29.77,WNW,293,1.8,3.1,64,0.00,,,0.00,WUHU216HW,2013-06-26 22:22:00,
2013-06-26 18:27:00,79.0,64.9,29.78,NNW,338,2.0,3.1,62,0.00,,,0.00,WUHU216HW,2013-06-26 22:27:00,
2013-06-26 18:32:00,78.8,65.2,29.78,WNW,293,2.0,3.1,63,0.00,,,0.00,WUHU216HW,2013-06-26 22:32:00,
2013-06-26 18:37:00,78.7,65.4,29.78,NW,315,3.4,3.8,64,0.00,,,0.00,WUHU216HW,2013-06-26 22:37:00,
2013-06-26 18:42:00,78.5,64.9,29.78,NW,315,2.9,3.8,63,0.00,,,0.00,WUHU216HW,2013-06-26 22:42:00,
2013-06-26 18:47:00,78.7,65.9,29.78,North,0,2.0,3.6,65,0.00,,,0.00,WUHU216HW,2013-06-26 22:47:00,
2013-06-26 18:52:00,78.5,65.7,29.78,NW,315,2.2,3.8,65,0.00,,,0.00,WUHU216HW,2013-06-26 22:52:00,
2013-06-26 18:57:00,78.7,65.4,29.78,WNW,293,2.2,5.1,64,0.00,,,0.00,WUHU216HW,2013-06-26 22:57:00,
2013-06-26 19:02:00,78.5,65.3,29.78,NW,315,4.0,5.1,64,0.00,,,0.00,WUHU216HW,2013-06-26 23:02:00,
2013-06-26 19:07:00,78.3,65.1,29.79,WNW,293,1.1,4.9,64,0.00,,,0.00,WUHU216HW,2013-06-26 23:07:00,
2013-06-26 19:12:00,78.1,65.0,29.79,NW,315,2.5,4.9,64,0.00,,,0.00,WUHU216HW,2013-06-26 23:12:00,
2013-06-26 19:17:00,78.1,65.0,29.79,NW,315,2.7,4.9,64,0.00,,,0.00,WUHU216HW,2013-06-26 23:17:00,
2013-06-26 19:22:00,78.1,65.3,29.79,WSW,248,0.4,2.7,65,0.00,,,0.00,WUHU216HW,2013-06-26 23:22:00,
2013-06-26 19:27:00,78.3,66.0,29.79,NNW,338,0.0,2.5,66,0.00,,,0.00,WUHU216HW,2013-06-26 23:27:00,
2013-06-26 19:32:00,78.1,65.8,29.79,North,0,0.0,0.4,66,0.00,,,0.00,WUHU216HW,2013-06-26 23:32:00,
2013-06-26 19:37:00,77.8,65.9,29.79,SSW,203,0.7,0.9,67,0.00,,,0.00,WUHU216HW,2013-06-26 23:37:00,
2013-06-26 19:42:00,77.6,65.8,29.79,WSW,248,0.0,0.9,67,0.00,,,0.00,WUHU216HW,2013-06-26 23:42:00,
2013-06-26 19:47:00,77.2,65.4,29.79,WSW,248,0.0,0.4,67,0.00,,,0.00,WUHU216HW,2013-06-26 23:47:00,
2013-06-26 19:52:00,76.9,65.5,29.79,NW,315,0.0,0.0,68,0.00,,,0.00,WUHU216HW,2013-06-26 23:52:00,
2013-06-26 19:57:00,76.5,65.2,29.79,NW,315,0.0,0.0,68,0.00,,,0.00,WUHU216HW,2013-06-26 23:57:00,
2013-06-26 20:02:00,76.0,65.1,29.79,NW,315,0.0,0.0,69,0.00,,,0.00,WUHU216HW,2013-06-27 00:02:00,
2013-06-26 20:07:00,75.4,64.5,29.79,NNW,338,0.0,0.0,69,0.00,,,0.00,WUHU216HW,2013-06-27 00:07:00,
2013-06-26 20:12:00,75.1,64.6,29.79,NNW,338,0.0,0.0,70,0.00,,,0.00,WUHU216HW,2013-06-27 00:12:00,
2013-06-26 20:17:00,74.7,64.7,29.79,NNW,338,0.0,0.0,71,0.00,,,0.00,WUHU216HW,2013-06-27 00:17:00,
2013-06-26 20:22:00,74.5,64.5,29.79,West,270,0.9,1.3,71,0.00,,,0.00,WUHU216HW,2013-06-27 00:22:00,
2013-06-26 20:27:00,74.3,64.8,29.79,West,270,0.0,1.3,72,0.00,,,0.00,WUHU216HW,2013-06-27 00:27:00,
2013-06-26 20:32:00,74.0,64.5,29.78,West,270,0.0,0.9,72,0.00,,,0.00,WUHU216HW,2013-06-27 00:32:00,
2013-06-26 20:37:00,73.6,64.4,29.78,West,270,0.0,0.0,73,0.00,,,0.00,WUHU216HW,2013-06-27 00:37:00,
2013-06-26 20:42:00,73.3,64.5,29.78,WNW,293,0.0,0.0,74,0.00,,,0.00,WUHU216HW,2013-06-27 00:42:00,
2013-06-26 20:47:00,73.1,64.4,29.78,WNW,293,0.0,0.0,74,0.00,,,0.00,WUHU216HW,2013-06-27 00:47:00,
2013-06-26 20:52:00,72.7,64.7,29.78,NW,315,0.9,1.1,76,0.00,,,0.00,WUHU216HW,2013-06-27 00:52:00,
2013-06-26 20:57:00,72.0,63.6,29.78,NW,315,0.0,1.1,75,0.00,,,0.00,WUHU216HW,2013-06-27 00:57:00,
2013-06-26 21:02:00,71.8,63.5,29.79,WNW,293,0.0,1.1,75,0.00,,,0.00,WUHU216HW,2013-06-27 01:02:00,
2013-06-26 21:07:00,71.6,63.6,29.79,NW,315,0.4,0.9,76,0.00,,,0.00,WUHU216HW,2013-06-27 01:07:00,
2013-06-26 21:12:00,71.3,63.3,29.79,NNW,338,0.0,0.9,76,0.00,,,0.00,WUHU216HW,2013-06-27 01:12:00,
2013-06-26 21:17:00,70.9,63.3,29.78,NNW,338,0.0,0.4,77,0.00,,,0.00,WUHU216HW,2013-06-27 01:17:00,
2013-06-26 21:22:00,70.6,62.9,29.78,NNW,338,0.0,0.0,77,0.00,,,0.00,WUHU216HW,2013-06-27 01:22:00,
2013-06-26 21:27:00,70.2,63.0,29.78,NNW,338,0.0,0.0,78,0.00,,,0.00,WUHU216HW,2013-06-27 01:27:00,
2013-06-26 21:32:00,70.0,63.2,29.78,NNW,338,0.0,0.0,79,0.00,,,0.00,WUHU216HW,2013-06-27 01:32:00,
2013-06-26 21:37:00,69.8,63.0,29.78,NNW,338,0.0,0.0,79,0.00,,,0.00,WUHU216HW,2013-06-27 01:37:00,
2013-06-26 21:42:00,69.8,63.0,29.78,North,0,0.4,0.4,79,0.00,,,0.00,WUHU216HW,2013-06-27 01:42:00,
2013-06-26 21:47:00,69.8,63.0,29.78,North,0,0.0,0.4,79,0.00,,,0.00,WUHU216HW,2013-06-27 01:47:00,
2013-06-26 21:52:00,69.7,62.8,29.79,North,0,0.0,0.4,79,0.00,,,0.00,WUHU216HW,2013-06-27 01:52:00,
2013-06-26 21:57:00,69.5,63.0,29.79,North,0,0.0,0.0,80,0.00,,,0.00,WUHU216HW,2013-06-27 01:57:00,
2013-06-26 22:02:00,69.1,62.7,29.79,North,0,0.0,0.0,80,0.00,,,0.00,WUHU216HW,2013-06-27 02:02:00,
2013-06-26 22:07:00,68.9,62.6,29.79,North,0,0.0,0.0,80,0.00,,,0.00,WUHU216HW,2013-06-27 02:07:00,
2013-06-26 22:12:00,68.9,62.6,29.79,NNW,338,0.0,0.2,80,0.00,,,0.00,WUHU216HW,2013-06-27 02:12:00,
2013-06-26 22:17:00,68.9,62.6,29.79,WNW,293,0.0,0.4,80,0.00,,,0.00,WUHU216HW,2013-06-27 02:17:00,
2013-06-26 22:22:00,68.8,62.4,29.79,WNW,293,0.0,0.4,80,0.00,,,0.00,WUHU216HW,2013-06-27 02:22:00,
2013-06-26 22:27:00,68.4,62.7,29.78,NNW,338,0.0,0.0,82,0.00,,,0.00,WUHU216HW,2013-06-27 02:27:00,
2013-06-26 22:32:00,68.0,62.4,29.78,NNW,338,0.0,0.0,82,0.00,,,0.00,WUHU216HW,2013-06-27 02:32:00,
2013-06-26 22:37:00,68.0,62.4,29.78,NNW,338,0.0,0.0,82,0.00,,,0.00,WUHU216HW,2013-06-27 02:37:00,
2013-06-26 22:42:00,67.9,62.2,29.79,NNW,338,0.0,0.0,82,0.00,,,0.00,WUHU216HW,2013-06-27 02:42:00,
2013-06-26 22:47:00,67.7,62.0,29.79,NNW,338,0.0,0.0,82,0.00,,,0.00,WUHU216HW,2013-06-27 02:47:00,
2013-06-26 22:52:00,67.7,62.0,29.79,NNW,338,0.0,0.0,82,0.00,,,0.00,WUHU216HW,2013-06-27 02:52:00,
2013-06-26 22:57:00,67.5,61.8,29.79,NNW,338,0.0,0.9,82,0.00,,,0.00,WUHU216HW,2013-06-27 02:57:00,
2013-06-26 23:02:00,67.3,62.0,29.79,NNW,338,0.0,0.9,83,0.00,,,0.00,WUHU216HW,2013-06-27 03:02:00,
2013-06-26 23:07:00,67.3,62.0,29.79,NNW,338,0.0,0.0,83,0.00,,,0.00,WUHU216HW,2013-06-27 03:07:00,
2013-06-26 23:12:00,67.1,61.8,29.79,NNW,338,0.0,0.0,83,0.00,,,0.00,WUHU216HW,2013-06-27 03:12:00,
2013-06-26 23:17:00,67.0,61.9,29.79,NNW,338,0.0,0.0,84,0.00,,,0.00,WUHU216HW,2013-06-27 03:17:00,
2013-06-26 23:22:00,66.8,61.7,29.79,NNW,338,0.0,0.0,84,0.00,,,0.00,WUHU216HW,2013-06-27 03:22:00,
2013-06-26 23:27:00,66.8,61.7,29.79,NNW,338,0.0,0.0,84,0.00,,,0.00,WUHU216HW,2013-06-27 03:27:00,
2013-06-26 23:32:00,66.6,61.6,29.79,NNW,338,0.0,0.0,84,0.00,,,0.00,WUHU216HW,2013-06-27 03:32:00,
2013-06-26 23:37:00,66.6,61.6,29.79,NNW,338,0.0,0.0,84,0.00,,,0.00,WUHU216HW,2013-06-27 03:37:00,
2013-06-26 23:42:00,66.4,61.4,29.79,NNW,338,0.0,0.0,84,0.00,,,0.00,WUHU216HW,2013-06-27 03:42:00,
2013-06-26 23:47:00,66.4,61.4,29.79,NNW,338,0.0,0.0,84,0.00,,,0.00,WUHU216HW,2013-06-27 03:47:00,
2013-06-26 23:52:00,66.2,61.2,29.79,NNW,338,0.0,0.0,84,0.00,,,0.00,WUHU216HW,2013-06-27 03:52:00,
2013-06-26 23:57:00,66.2,61.6,29.79,WNW,293,0.4,0.4,85,0.00,,,0.00,WUHU216HW,2013-06-27 03:57:00,